NOAA NWS Hourly Roundups by Site

Regional Weather Roundup for State College, PA

To Select Another Site Choose from List

Select Site:  

000
ASUS41 KCTP 200810
RWRCTP

REGIONAL WEATHER ROUNDUP
NATIONAL WEATHER SERVICE STATE COLLEGE PA
400 AM EDT SAT OCT 20 2018

Note: "fair" indicates few or no clouds below 12,000 feet with no
significant weather and/or obstructions to visibility.

* = STATION THAT DOES NOT REPORT PRECIPITATION /E.G. RAIN...SNOW...ETC/
    THUNDER OR FOG.

PAZ002>004-007>009-013>016-020>023-029>032-200900-
WESTERN PENNSYLVANIA

CITY           SKY/WX    TMP DP  RH WIND       PRES   REMARKS
ERIE           CLOUDY    49  43  80 SW18G24   29.71F
MEADVILLE      CLOUDY    44  44 100 SW9       29.75F
FRANKLIN*      LGT RAIN  44  43  96 SW13      29.76F
NEW CASTLE     LGT RAIN  46  44  93 VRB7      29.80F FOG
BEAVER COUNTY  NOT AVBL
BUTLER*        LGT RAIN  46  45  96 SW12      29.81F
PITTSBURGH INT DRIZZLE   46  46 100 SW12      29.81F FOG
PITTSBURGH     CLOUDY    47  46  97 SW12      29.82F
INDIANA*       CLOUDY    48  48 100 W13       29.83F FOG
LATROBE        DRIZZLE   48  48 100 SW13      29.83F
WASHINGTON CO* CLOUDY    48  46  93 SW9       29.87F
$$

PAZ004>006-010>012-017>019-024>028-033>037-041-042-045-046-049>053-200900-
CENTRAL PENNSYLVANIA

CITY           SKY/WX    TMP DP  RH WIND       PRES   REMARKS
BRADFORD       LGT RAIN  43  41  93 W12G23    29.71F FOG
DUBOIS         CLOUDY    44  42  93 SW16G24   29.75F
CLEARFIELD     CLOUDY    47  45  93 W12G22    29.76F
JOHNSTOWN      CLOUDY    47  44  90 W15G26    29.78F
ALTOONA        CLOUDY    53  46  77 SW8       29.79F
STATE COLLEGE  CLOUDY    50  46  86 W14G24    29.76F
WILLIAMSPORT   CLOUDY    52  45  77 CALM      29.74F
SELINSGROVE    CLOUDY    50  47  89 S6        29.78F
FT INDIANTOWN  MOCLDY    50  48  95 CALM      29.78F
CAPITAL CITY   CLOUDY    54  50  86 VRB3      29.78F
HARRISBURG     CLOUDY    54  50  86 S10       29.77F
YORK           LGT RAIN  53  50  89 S9        29.79F
$$

PAZ038>040-043-044-047-048-054-055-060>062-067>071-200900-
EASTERN PENNSYLVANIA

CITY           SKY/WX    TMP DP  RH WIND       PRES   REMARKS
SCRANTON       CLOUDY    51  46  83 SW10G20   29.74F
MOUNT POCONO   CLOUDY    46  45  96 SW13      29.74F
ALLENTOWN      LGT RAIN  53  48  83 SW6       29.78F
QUAKERTOWN*    PTSUNNY   52  50  93 CALM      29.79F
READING        LGT RAIN  52  52 100 SE3       29.78F
LANCASTER      LGT RAIN  54  52  93 SW3       29.80F FOG
COATESVILLE    LGT RAIN  50  50 100 VRB5      29.82F
POTTSTOWN      LGT RAIN  51  49  92 S5        29.82F
BLUE BELL      CLOUDY    50  50 100 CALM      29.82F
DOYLESTOWN     CLOUDY    52  47  83 S3        29.79F
WILLOW GROVE   NOT AVBL
NORTH PHILA    CLOUDY    56  50  80 SW5       29.83F
PHILADELPHIA   LGT RAIN  55  50  83 SW6       29.83F
$$


 

View Past Reports for State College, PA.

Products Courtesy of NOAA-NWS
NWS Information Parsing Script by Ken True at Saratoga Weather - Script by SE Lincoln Weather.